Sexton Summit, OR

1:53 PM PDT on September 21, 2017 (GMT -0700)
Sexton Summit

Weather History for KSXT - April, 2013

Change the Weather History Date:

Friday, April 12, 2013

  Actual Average Record
Temperature  
Mean Temperature 46 °F -  
Max Temperature 57 °F 46 °F 73 °F (2008)
Min Temperature 36 °F 32 °F 26 °F (1998)
Degree Days  
Heating Degree Days 18    
Moisture  
Dew Point 33 °F    
Average Humidity 64    
Maximum Humidity 83    
Minimum Humidity 38    
Precipitation  
Precipitation 0.00 in - - ()
Sea Level Pressure  
Sea Level Pressure 29.98 in    
Wind  
Wind Speed 5 mph (ENE)    
Max Wind Speed 9 mph    
Max Gust Speed -    
Visibility 10 miles    
Events      
Averages and records for this station are not official NWS values.
T = Trace of Precipitation, MM = Missing Value Source: NWS Daily Summary

Daily Weather History Graph

Daily Weather History Graph

Search for Another Location

Airport or City:

Trip Planner

Search our weather history database for the weather conditions in past years. The results will help you decide how hot, cold, wet, or windy it might be!

Date:

Astronomy

Apr. 12, 2013 Rise Set
Actual Time 6:36 AM PDT 7:52 PM PDT
Civil Twilight 6:07 AM PDT 8:21 PM PDT
Nautical Twilight 5:32 AM PDT 8:56 PM PDT
Astronomical Twilight 4:55 AM PDT 9:33 PM PDT
Moon 7:47 AM PDT (4/12) 10:31 PM PDT (4/12)
Length of Visible Light 14h 14m
Length of Day
13h 15m
Waxing Crescent, 6% of the Moon is Illuminated
Apr 12
Waxing Crescent
Apr 18
First Quarter
Apr 25
Full
May 2
Last Quarter
May 9
New

Hourly Weather History & Observations

Time (PDT) Temp. Windchill Dew Point Humidity Pressure Visibility Wind Dir Wind Speed Gust Speed Precip Events Conditions
12:56 AM 36.0 °F 30.3 °F 30.9 °F 82% 30.09 in 10.0 mi NNE 6.9 mph - N/A   Clear
1:56 AM 39.0 °F 35.7 °F 30.9 °F 73% 30.05 in 10.0 mi East 4.6 mph - N/A   Clear
2:56 AM 37.9 °F 34.4 °F 32.0 °F 79% 30.03 in 10.0 mi East 4.6 mph - N/A   Clear
3:56 AM 37.0 °F 31.6 °F 30.9 °F 79% 30.03 in 10.0 mi NNE 6.9 mph - N/A   Clear
4:56 AM 37.0 °F 34.5 °F 32.0 °F 82% 30.04 in 10.0 mi North 3.5 mph - N/A   Clear
5:56 AM 39.0 °F 36.8 °F 32.0 °F 76% 30.04 in 10.0 mi SSE 3.5 mph - N/A   Clear
6:56 AM 37.9 °F 32.7 °F 32.0 °F 79% 30.04 in 10.0 mi SE 6.9 mph - N/A   Clear
7:56 AM 37.9 °F 31.5 °F 33.1 °F 83% 30.04 in 10.0 mi SE 9.2 mph - N/A   Clear
8:56 AM 41.0 °F 35.8 °F 34.0 °F 76% 30.02 in 10.0 mi SE 8.1 mph - N/A   Clear
9:56 AM 45.0 °F 41.2 °F 35.1 °F 68% 30.00 in 10.0 mi SE 6.9 mph - N/A   Clear
10:56 AM 46.9 °F - 36.0 °F 66% 30.00 in 10.0 mi SE 8.1 mph - N/A   Clear
11:56 AM 50.0 °F - 37.0 °F 61% 30.00 in 10.0 mi Calm Calm - N/A   Clear
12:56 PM 55.0 °F - 37.0 °F 51% 29.96 in 10.0 mi Calm Calm - N/A   Clear
1:56 PM 55.0 °F - 30.0 °F 38% 29.95 in 10.0 mi Variable 3.5 mph - N/A   Clear
2:56 PM 57.0 °F - 36.0 °F 45% 29.94 in 10.0 mi Variable 3.5 mph - N/A   Partly Cloudy
3:56 PM 55.9 °F - 34.0 °F 44% 29.93 in 10.0 mi Calm Calm - N/A   Overcast
4:56 PM 55.9 °F - 33.1 °F 42% 29.91 in 10.0 mi Calm Calm - N/A   Overcast
5:56 PM 52.0 °F - 33.1 °F 49% 29.91 in 10.0 mi NNW 4.6 mph - N/A   Overcast
6:56 PM 50.0 °F - 30.9 °F 48% 29.92 in 10.0 mi Variable 4.6 mph - N/A   Overcast
7:15 PM 48.2 °F - 30.2 °F 50% 29.93 in 10.0 mi Variable 6.9 mph - N/A   Overcast
7:23 PM 48.2 °F - 30.2 °F 50% 29.93 in 10.0 mi Variable 6.9 mph - N/A   Overcast
7:56 PM 46.0 °F 43.1 °F 28.9 °F 51% 29.94 in 10.0 mi Variable 5.8 mph - N/A   Overcast
8:56 PM 43.0 °F 39.5 °F 30.9 °F 62% 29.96 in 10.0 mi NNW 5.8 mph - N/A   Overcast
9:34 PM 42.8 °F 40.1 °F 32.0 °F 66% 29.97 in 10.0 mi Variable 4.6 mph - N/A   Overcast
9:53 PM 42.8 °F 41.1 °F 32.0 °F 66% 29.97 in 10.0 mi Variable 3.5 mph - N/A   Overcast
9:56 PM 42.1 °F 39.2 °F 32.0 °F 67% 29.96 in 10.0 mi Variable 4.6 mph - N/A   Overcast
10:56 PM 39.9 °F 35.8 °F 32.0 °F 73% 29.96 in 10.0 mi NW 5.8 mph - N/A   Mostly Cloudy
11:56 PM 37.9 °F 32.7 °F 32.0 °F 79% 29.94 in 10.0 mi NNW 6.9 mph - N/A   Clear